Wetterdaten: Donnerstag, 03.04.2014
Datum Zeit Temperatur Luftfeuchte Luftdruck Regen Wind Richtung Richtung Taupunkt Windchill Windben
03.04.2014 00:00 5,7 C 76 % 1009,2 hPa 0,0 l/m 0,0 km/h (0 Bft) SW 225 1,8 C 0,0 C 0,0 km/h (0 Bft)
03.04.2014 00:05 5,4 C 76 % 1009,2 hPa 0,0 l/m 0,0 km/h (0 Bft) SW 225 1,5 C 0,0 C 0,0 km/h (0 Bft)
03.04.2014 00:10 5,4 C 76 % 1009,4 hPa 0,0 l/m 0,0 km/h (0 Bft) SW 225 1,5 C 0,0 C 0,0 km/h (0 Bft)
03.04.2014 00:15 5,3 C 77 % 1009,4 hPa 0,0 l/m 0,0 km/h (0 Bft) SW 225 1,6 C 0,0 C 0,0 km/h (0 Bft)
03.04.2014 00:20 5,4 C 77 % 1009,4 hPa 0,0 l/m 0,0 km/h (0 Bft) SW 225 1,7 C 0,0 C 0,0 km/h (0 Bft)
03.04.2014 00:25 5,0 C 77 % 1009,4 hPa 0,0 l/m 0,0 km/h (0 Bft) SW 225 1,3 C 0,0 C 0,0 km/h (0 Bft)
03.04.2014 00:30 5,4 C 78 % 1009,4 hPa 0,0 l/m 0,0 km/h (0 Bft) SW 225 1,9 C 0,0 C 0,0 km/h (0 Bft)
03.04.2014 00:35 5,3 C 77 % 1009,4 hPa 0,0 l/m 0,0 km/h (0 Bft) SW 225 1,6 C 0,0 C 0,0 km/h (0 Bft)
03.04.2014 00:40 5,2 C 77 % 1009,4 hPa 0,0 l/m 0,0 km/h (0 Bft) SW 225 1,5 C 0,0 C 0,0 km/h (0 Bft)
03.04.2014 00:45 6,5 C 78 % 1009,4 hPa 0,0 l/m 0,0 km/h (0 Bft) SW 225 2,9 C 0,0 C 0,0 km/h (0 Bft)
03.04.2014 00:50 5,7 C 77 % 1009,5 hPa 0,0 l/m 0,0 km/h (0 Bft) SW 225 2,0 C 0,0 C 0,0 km/h (0 Bft)
03.04.2014 00:55 5,1 C 77 % 1009,5 hPa 0,0 l/m 0,0 km/h (0 Bft) SW 225 1,4 C 0,0 C 0,0 km/h (0 Bft)
03.04.2014 01:00 5,2 C 77 % 1009,5 hPa 0,0 l/m 0,0 km/h (0 Bft) SW 225 1,5 C 0,0 C 0,0 km/h (0 Bft)
03.04.2014 01:05 5,2 C 78 % 1009,5 hPa 0,0 l/m 0,0 km/h (0 Bft) SW 225 1,7 C 0,0 C 0,0 km/h (0 Bft)
03.04.2014 01:10 5,1 C 78 % 1009,3 hPa 0,0 l/m 0,0 km/h (0 Bft) SW 225 1,6 C 0,0 C 0,0 km/h (0 Bft)
03.04.2014 01:15 5,2 C 78 % 1009,3 hPa 0,0 l/m 0,0 km/h (0 Bft) SW 225 1,7 C 0,0 C 0,0 km/h (0 Bft)
03.04.2014 01:20 5,2 C 79 % 1009,3 hPa 0,0 l/m 0,0 km/h (0 Bft) SW 225 1,9 C 0,0 C 0,0 km/h (0 Bft)
03.04.2014 01:25 5,2 C 79 % 1009,3 hPa 0,0 l/m 0,0 km/h (0 Bft) SW 225 1,9 C 0,0 C 0,0 km/h (0 Bft)
03.04.2014 01:30 5,3 C 79 % 1009,3 hPa 0,0 l/m 0,0 km/h (0 Bft) SW 225 2,0 C 0,0 C 0,0 km/h (0 Bft)
03.04.2014 01:35 5,2 C 78 % 1009,3 hPa 0,0 l/m 0,0 km/h (0 Bft) SW 225 1,7 C 0,0 C 0,0 km/h (0 Bft)
03.04.2014 01:40 5,0 C 78 % 1009,3 hPa 0,0 l/m 0,0 km/h (0 Bft) SW 225 1,5 C 0,0 C 0,0 km/h (0 Bft)
03.04.2014 01:45 5,1 C 79 % 1009,3 hPa 0,0 l/m 0,0 km/h (0 Bft) SW 225 1,8 C 0,0 C 0,0 km/h (0 Bft)
03.04.2014 01:50 4,9 C 79 % 1009,4 hPa 0,0 l/m 0,0 km/h (0 Bft) SW 225 1,6 C 0,0 C 0,0 km/h (0 Bft)
03.04.2014 01:55 4,7 C 79 % 1009,4 hPa 0,0 l/m 0,0 km/h (0 Bft) SW 225 1,4 C 0,0 C 0,0 km/h (0 Bft)
03.04.2014 02:00 5,0 C 79 % 1009,4 hPa 0,0 l/m 0,0 km/h (0 Bft) SW 225 1,7 C 0,0 C 0,0 km/h (0 Bft)
03.04.2014 02:05 4,9 C 79 % 1009,4 hPa 0,0 l/m 0,0 km/h (0 Bft) SW 225 1,6 C 0,0 C 0,0 km/h (0 Bft)
03.04.2014 02:10 5,0 C 79 % 1009,2 hPa 0,0 l/m 0,0 km/h (0 Bft) SW 225 1,7 C 0,0 C 0,0 km/h (0 Bft)
03.04.2014 02:15 5,2 C 80 % 1009,2 hPa 0,0 l/m 0,0 km/h (0 Bft) SW 225 2,0 C 0,0 C 0,0 km/h (0 Bft)
03.04.2014 02:20 5,2 C 79 % 1009,2 hPa 0,0 l/m 0,0 km/h (0 Bft) SW 225 1,9 C 0,0 C 0,0 km/h (0 Bft)
03.04.2014 02:25 4,9 C 79 % 1009,2 hPa 0,0 l/m 0,0 km/h (0 Bft) SW 225 1,6 C 0,0 C 0,0 km/h (0 Bft)
03.04.2014 02:30 4,5 C 78 % 1009,0 hPa 0,0 l/m 0,0 km/h (0 Bft) SW 225 1,0 C 0,0 C 0,0 km/h (0 Bft)
03.04.2014 02:35 4,2 C 79 % 1009,0 hPa 0,0 l/m 0,0 km/h (0 Bft) SW 225 0,9 C 0,0 C 0,0 km/h (0 Bft)
03.04.2014 02:40 4,3 C 79 % 1009,0 hPa 0,0 l/m 0,0 km/h (0 Bft) SW 225 1,0 C 0,0 C 0,0 km/h (0 Bft)
03.04.2014 02:45 3,9 C 79 % 1009,0 hPa 0,0 l/m 0,0 km/h (0 Bft) SW 225 0,6 C 0,0 C 0,0 km/h (0 Bft)
03.04.2014 02:50 4,0 C 79 % 1008,9 hPa 0,0 l/m 0,0 km/h (0 Bft) SW 225 0,7 C 0,0 C 0,0 km/h (0 Bft)
03.04.2014 02:55 4,4 C 80 % 1008,9 hPa 0,0 l/m 0,0 km/h (0 Bft) SW 225 1,3 C 0,0 C 0,0 km/h (0 Bft)
03.04.2014 03:00 4,6 C 81 % 1008,9 hPa 0,0 l/m 0,0 km/h (0 Bft) SW 225 1,6 C 0,0 C 0,0 km/h (0 Bft)
03.04.2014 03:05 4,4 C 80 % 1008,9 hPa 0,0 l/m 0,0 km/h (0 Bft) SW 225 1,3 C 0,0 C 0,0 km/h (0 Bft)
03.04.2014 03:10 4,2 C 80 % 1008,2 hPa 0,0 l/m 0,0 km/h (0 Bft) SW 225 1,1 C 0,0 C 0,0 km/h (0 Bft)
03.04.2014 03:15 4,1 C 80 % 1008,2 hPa 0,0 l/m 0,0 km/h (0 Bft) SW 225 1,0 C 0,0 C 0,0 km/h (0 Bft)
03.04.2014 03:20 3,8 C 80 % 1008,2 hPa 0,0 l/m 0,0 km/h (0 Bft) SW 225 0,7 C 0,0 C 0,0 km/h (0 Bft)
03.04.2014 03:25 3,6 C 80 % 1008,2 hPa 0,0 l/m 0,0 km/h (0 Bft) SW 225 0,5 C 0,0 C 0,0 km/h (0 Bft)
03.04.2014 03:30 3,5 C 80 % 1008,6 hPa 0,0 l/m 0,0 km/h (0 Bft) SW 225 0,4 C 0,0 C 0,0 km/h (0 Bft)
03.04.2014 03:35 3,2 C 80 % 1008,6 hPa 0,0 l/m 0,0 km/h (0 Bft) SW 225 0,1 C 0,0 C 0,0 km/h (0 Bft)
03.04.2014 03:40 3,3 C 81 % 1008,6 hPa 0,0 l/m 0,0 km/h (0 Bft) SW 225 0,4 C 0,0 C 0,0 km/h (0 Bft)
03.04.2014 03:45 3,6 C 82 % 1008,6 hPa 0,0 l/m 0,0 km/h (0 Bft) SW 225 0,8 C 0,0 C 0,0 km/h (0 Bft)
03.04.2014 03:50 3,6 C 82 % 1008,4 hPa 0,0 l/m 0,0 km/h (0 Bft) SW 225 0,8 C 0,0 C 0,0 km/h (0 Bft)
03.04.2014 03:55 3,4 C 81 % 1008,4 hPa 0,0 l/m 0,0 km/h (0 Bft) SW 225 0,5 C 0,0 C 0,0 km/h (0 Bft)
03.04.2014 04:00 3,5 C 82 % 1008,4 hPa 0,0 l/m 0,0 km/h (0 Bft) SW 225 0,7 C 0,0 C 0,0 km/h (0 Bft)
03.04.2014 04:05 3,3 C 82 % 1008,4 hPa 0,0 l/m 0,0 km/h (0 Bft) SW 225 0,5 C 0,0 C 0,0 km/h (0 Bft)
03.04.2014 04:08 3,6 C 83 % 1008,5 hPa 0,0 l/m 0,0 km/h (0 Bft) SW 225 1,0 C 0,0 C 0,0 km/h (0 Bft)
03.04.2014 04:10 3,6 C 83 % 1008,5 hPa 0,0 l/m 0,0 km/h (0 Bft) SW 225 1,0 C 0,0 C 0,0 km/h (0 Bft)
03.04.2014 04:15 3,8 C 83 % 1008,5 hPa 0,0 l/m 0,0 km/h (0 Bft) SW 225 1,2 C 0,0 C 0,0 km/h (0 Bft)
03.04.2014 04:20 3,6 C 82 % 1008,5 hPa 0,0 l/m 0,0 km/h (0 Bft) SW 225 0,8 C 0,0 C 0,0 km/h (0 Bft)
03.04.2014 04:25 3,4 C 82 % 1008,5 hPa 0,0 l/m 0,0 km/h (0 Bft) SW 225 0,6 C 0,0 C 0,0 km/h (0 Bft)
03.04.2014 04:30 3,2 C 82 % 1008,4 hPa 0,0 l/m 0,0 km/h (0 Bft) SW 225 0,4 C 0,0 C 0,0 km/h (0 Bft)
03.04.2014 04:35 3,3 C 82 % 1008,4 hPa 0,0 l/m 0,0 km/h (0 Bft) SW 225 0,5 C 0,0 C 0,0 km/h (0 Bft)
03.04.2014 04:40 3,4 C 83 % 1008,4 hPa 0,0 l/m 0,0 km/h (0 Bft) SW 225 0,8 C 0,0 C 0,0 km/h (0 Bft)
03.04.2014 04:45 3,3 C 82 % 1008,4 hPa 0,0 l/m 0,0 km/h (0 Bft) SW 225 0,5 C 0,0 C 0,0 km/h (0 Bft)
03.04.2014 04:50 3,0 C 82 % 1008,6 hPa 0,0 l/m 0,0 km/h (0 Bft) SW 225 0,2 C 0,0 C 0,0 km/h (0 Bft)
03.04.2014 04:55 3,0 C 82 % 1008,6 hPa 0,0 l/m 0,0 km/h (0 Bft) SW 225 0,2 C 0,0 C 0,0 km/h (0 Bft)
03.04.2014 05:00 3,0 C 82 % 1008,6 hPa 0,0 l/m 0,0 km/h (0 Bft) SW 225 0,2 C 0,0 C 0,0 km/h (0 Bft)
03.04.2014 05:05 3,0 C 82 % 1008,6 hPa 0,0 l/m 0,0 km/h (0 Bft) SW 225 0,2 C 0,0 C 0,0 km/h (0 Bft)
03.04.2014 05:10 2,9 C 83 % 1008,5 hPa 0,0 l/m 0,0 km/h (0 Bft) SW 225 0,3 C 0,0 C 0,0 km/h (0 Bft)
03.04.2014 05:15 2,7 C 83 % 1008,5 hPa 0,0 l/m 0,0 km/h (0 Bft) SW 225 0,1 C 0,0 C 0,0 km/h (0 Bft)
03.04.2014 05:20 3,0 C 83 % 1008,5 hPa 0,0 l/m 0,0 km/h (0 Bft) SW 225 0,4 C 0,0 C 0,0 km/h (0 Bft)
03.04.2014 05:25 3,3 C 82 % 1008,5 hPa 0,0 l/m 0,0 km/h (0 Bft) SW 225 0,5 C 0,0 C 0,0 km/h (0 Bft)
03.04.2014 05:30 3,1 C 82 % 1008,1 hPa 0,0 l/m 0,0 km/h (0 Bft) SW 225 0,3 C 0,0 C 0,0 km/h (0 Bft)
03.04.2014 05:35 3,0 C 82 % 1008,1 hPa 0,0 l/m 0,0 km/h (0 Bft) SW 225 0,2 C 0,0 C 0,0 km/h (0 Bft)
03.04.2014 05:40 3,1 C 82 % 1008,1 hPa 0,0 l/m 0,0 km/h (0 Bft) SW 225 0,3 C 0,0 C 0,0 km/h (0 Bft)
03.04.2014 05:45 3,1 C 82 % 1008,1 hPa 0,0 l/m 0,0 km/h (0 Bft) SW 225 0,3 C 0,0 C 0,0 km/h (0 Bft)
03.04.2014 05:50 3,3 C 82 % 1008,6 hPa 0,0 l/m 0,0 km/h (0 Bft) SW 225 0,5 C 0,0 C 0,0 km/h (0 Bft)
03.04.2014 05:55 3,6 C 80 % 1008,6 hPa 0,0 l/m 0,0 km/h (0 Bft) SW 225 0,5 C 0,0 C 0,0 km/h (0 Bft)
03.04.2014 06:00 3,3 C 80 % 1008,6 hPa 0,0 l/m 0,0 km/h (0 Bft) SW 225 0,2 C 0,0 C 0,0 km/h (0 Bft)
03.04.2014 06:05 3,2 C 80 % 1008,6 hPa 0,0 l/m 0,0 km/h (0 Bft) SW 225 0,1 C 0,0 C 0,0 km/h (0 Bft)
03.04.2014 06:10 3,4 C 81 % 1008,8 hPa 0,0 l/m 0,0 km/h (0 Bft) SW 225 0,5 C 0,0 C 0,0 km/h (0 Bft)
03.04.2014 06:15 2,9 C 81 % 1008,8 hPa 0,0 l/m 0,0 km/h (0 Bft) SW 225 -0,0 C 0,0 C 0,0 km/h (0 Bft)
03.04.2014 06:20 3,1 C 80 % 1008,8 hPa 0,0 l/m 0,0 km/h (0 Bft) SW 225 -0,0 C 0,0 C 0,0 km/h (0 Bft)
03.04.2014 06:25 2,8 C 81 % 1008,8 hPa 0,0 l/m 0,0 km/h (0 Bft) SW 225 -0,1 C 0,0 C 0,0 km/h (0 Bft)
03.04.2014 06:30 2,6 C 80 % 1008,9 hPa 0,0 l/m 0,0 km/h (0 Bft) SW 225 -0,5 C 0,0 C 0,0 km/h (0 Bft)
03.04.2014 06:35 2,8 C 82 % 1008,9 hPa 0,0 l/m 0,0 km/h (0 Bft) SW 225 0,0 C 0,0 C 0,0 km/h (0 Bft)
03.04.2014 06:40 3,4 C 82 % 1008,9 hPa 0,0 l/m 0,0 km/h (0 Bft) SW 225 0,6 C 0,0 C 0,0 km/h (0 Bft)
03.04.2014 06:45 3,5 C 81 % 1008,9 hPa 0,0 l/m 0,0 km/h (0 Bft) SW 225 0,6 C 0,0 C 0,0 km/h (0 Bft)
03.04.2014 06:50 3,4 C 81 % 1009,1 hPa 0,0 l/m 0,0 km/h (0 Bft) SW 225 0,5 C 0,0 C 0,0 km/h (0 Bft)
03.04.2014 06:55 3,1 C 80 % 1009,1 hPa 0,0 l/m 0,0 km/h (0 Bft) SW 225 -0,0 C 0,0 C 0,0 km/h (0 Bft)
03.04.2014 07:00 3,0 C 80 % 1009,1 hPa 0,0 l/m 0,0 km/h (0 Bft) SW 225 -0,1 C 0,0 C 0,0 km/h (0 Bft)
03.04.2014 07:05 3,3 C 80 % 1009,1 hPa 0,0 l/m 0,0 km/h (0 Bft) SW 225 0,2 C 0,0 C 0,0 km/h (0 Bft)
03.04.2014 07:10 3,4 C 80 % 1009,0 hPa 0,0 l/m 0,0 km/h (0 Bft) SW 225 0,3 C 0,0 C 0,0 km/h (0 Bft)
03.04.2014 07:15 3,6 C 80 % 1009,0 hPa 0,0 l/m 0,0 km/h (0 Bft) SW 225 0,5 C 0,0 C 0,0 km/h (0 Bft)
03.04.2014 07:20 3,6 C 80 % 1009,0 hPa 0,0 l/m 0,0 km/h (0 Bft) SW 225 0,5 C 0,0 C 0,0 km/h (0 Bft)
03.04.2014 07:25 3,6 C 80 % 1009,0 hPa 0,0 l/m 0,0 km/h (0 Bft) SW 225 0,5 C 0,0 C 0,0 km/h (0 Bft)
03.04.2014 07:31 3,6 C 80 % 1009,1 hPa 0,0 l/m 0,0 km/h (0 Bft) SW 225 0,5 C 0,0 C 0,0 km/h (0 Bft)
03.04.2014 07:35 3,6 C 80 % 1009,1 hPa 0,0 l/m 0,0 km/h (0 Bft) SW 225 0,5 C 0,0 C 0,0 km/h (0 Bft)
03.04.2014 07:40 3,8 C 80 % 1009,1 hPa 0,0 l/m 0,0 km/h (0 Bft) SW 225 0,7 C 0,0 C 0,0 km/h (0 Bft)
03.04.2014 07:45 3,8 C 80 % 1009,1 hPa 0,0 l/m 0,0 km/h (0 Bft) SW 225 0,7 C 0,0 C 0,0 km/h (0 Bft)
03.04.2014 07:50 3,8 C 80 % 1009,5 hPa 0,0 l/m 0,0 km/h (0 Bft) SW 225 0,7 C 0,0 C 0,0 km/h (0 Bft)
03.04.2014 07:55 4,0 C 80 % 1009,5 hPa 0,0 l/m 0,0 km/h (0 Bft) SW 225 0,9 C 0,0 C 0,0 km/h (0 Bft)
03.04.2014 08:00 3,9 C 80 % 1009,5 hPa 0,0 l/m 0,0 km/h (0 Bft) SW 225 0,8 C 0,0 C 0,0 km/h (0 Bft)
03.04.2014 08:05 4,3 C 79 % 1009,5 hPa 0,0 l/m 0,0 km/h (0 Bft) SW 225 1,0 C 0,0 C 0,0 km/h (0 Bft)
03.04.2014 08:10 4,6 C 79 % 1008,8 hPa 0,0 l/m 0,0 km/h (0 Bft) SW 225 1,3 C 0,0 C 0,0 km/h (0 Bft)
03.04.2014 08:15 4,9 C 79 % 1008,8 hPa 0,0 l/m 0,0 km/h (0 Bft) SW 225 1,6 C 0,0 C 0,0 km/h (0 Bft)
03.04.2014 08:20 6,3 C 78 % 1008,8 hPa 0,0 l/m 0,0 km/h (0 Bft) SW 225 2,8 C 0,0 C 0,0 km/h (0 Bft)
03.04.2014 08:25 10,5 C 73 % 1008,8 hPa 0,0 l/m 0,0 km/h (0 Bft) SW 225 5,9 C 0,0 C 0,0 km/h (0 Bft)
03.04.2014 08:30 12,3 C 71 % 1008,9 hPa 0,0 l/m 0,0 km/h (0 Bft) SW 225 7,2 C 0,0 C 0,0 km/h (0 Bft)
03.04.2014 08:35 11,9 C 63 % 1008,9 hPa 0,0 l/m 0,0 km/h (0 Bft) SW 225 5,1 C 0,0 C 0,0 km/h (0 Bft)
03.04.2014 08:40 10,3 C 64 % 1008,9 hPa 0,0 l/m 0,0 km/h (0 Bft) SW 225 3,8 C 0,0 C 0,0 km/h (0 Bft)
03.04.2014 08:45 11,4 C 64 % 1008,9 hPa 0,0 l/m 0,0 km/h (0 Bft) SW 225 4,8 C 0,0 C 0,0 km/h (0 Bft)
03.04.2014 08:50 12,1 C 59 % 1009,4 hPa 0,0 l/m 0,0 km/h (0 Bft) SW 225 4,3 C 0,0 C 0,0 km/h (0 Bft)
03.04.2014 08:55 13,3 C 56 % 1009,4 hPa 0,0 l/m 0,0 km/h (0 Bft) SW 225 4,7 C 0,0 C 0,0 km/h (0 Bft)
03.04.2014 09:00 13,6 C 57 % 1009,4 hPa 0,0 l/m 0,0 km/h (0 Bft) SW 225 5,2 C 0,0 C 0,0 km/h (0 Bft)
03.04.2014 09:04 12,4 C 58 % 1009,4 hPa 0,0 l/m 0,0 km/h (0 Bft) SW 225 4,4 C 0,0 C 0,0 km/h (0 Bft)
03.04.2014 09:05 12,4 C 58 % 1009,4 hPa 0,0 l/m 0,0 km/h (0 Bft) SW 225 4,4 C 0,0 C 0,0 km/h (0 Bft)
03.04.2014 09:10 13,9 C 57 % 1008,9 hPa 0,0 l/m 0,0 km/h (0 Bft) SW 225 5,5 C 0,0 C 0,0 km/h (0 Bft)
03.04.2014 09:15 15,7 C 53 % 1008,9 hPa 0,0 l/m 0,0 km/h (0 Bft) SW 225 6,1 C 0,0 C 0,0 km/h (0 Bft)
03.04.2014 09:20 16,5 C 50 % 1008,9 hPa 0,0 l/m 0,0 km/h (0 Bft) SW 225 6,0 C 0,0 C 0,0 km/h (0 Bft)
03.04.2014 09:25 17,8 C 47 % 1008,9 hPa 0,0 l/m 0,0 km/h (0 Bft) SW 225 6,3 C 0,0 C 0,0 km/h (0 Bft)
03.04.2014 09:30 18,3 C 48 % 1009,3 hPa 0,0 l/m 0,0 km/h (0 Bft) SW 225 7,1 C 0,0 C 0,0 km/h (0 Bft)
03.04.2014 09:35 18,9 C 45 % 1009,3 hPa 0,0 l/m 0,0 km/h (0 Bft) SW 225 6,7 C 0,0 C 0,0 km/h (0 Bft)
03.04.2014 09:40 18,8 C 45 % 1009,3 hPa 0,0 l/m 0,0 km/h (0 Bft) SW 225 6,6 C 0,0 C 0,0 km/h (0 Bft)
03.04.2014 09:45 19,8 C 44 % 1009,3 hPa 0,0 l/m 0,0 km/h (0 Bft) SW 225 7,2 C 0,0 C 0,0 km/h (0 Bft)
03.04.2014 09:50 20,1 C 40 % 1009,8 hPa 0,0 l/m 0,0 km/h (0 Bft) SW 225 6,1 C 0,0 C 0,0 km/h (0 Bft)
03.04.2014 09:55 20,4 C 41 % 1009,8 hPa 0,0 l/m 0,0 km/h (0 Bft) SW 225 6,7 C 0,0 C 0,0 km/h (0 Bft)
03.04.2014 10:00 20,5 C 39 % 1009,8 hPa 0,0 l/m 0,0 km/h (0 Bft) SW 225 6,1 C 0,0 C 0,0 km/h (0 Bft)
03.04.2014 10:05 21,6 C 39 % 1009,8 hPa 0,0 l/m 0,0 km/h (0 Bft) SW 225 7,0 C 0,0 C 0,0 km/h (0 Bft)
03.04.2014 10:10 21,5 C 38 % 1010,2 hPa 0,0 l/m 0,0 km/h (0 Bft) SW 225 6,6 C 0,0 C 0,0 km/h (0 Bft)
03.04.2014 10:15 21,5 C 37 % 1010,2 hPa 0,0 l/m 0,0 km/h (0 Bft) SW 225 6,2 C 0,0 C 0,0 km/h (0 Bft)
03.04.2014 10:20 21,4 C 34 % 1010,2 hPa 0,0 l/m 0,0 km/h (0 Bft) SW 225 4,9 C 0,0 C 0,0 km/h (0 Bft)
03.04.2014 10:25 21,6 C 35 % 1010,2 hPa 0,0 l/m 0,0 km/h (0 Bft) SW 225 5,5 C 0,0 C 0,0 km/h (0 Bft)
03.04.2014 10:30 21,8 C 35 % 1010,0 hPa 0,0 l/m 0,0 km/h (0 Bft) SW 225 5,7 C 0,0 C 0,0 km/h (0 Bft)
03.04.2014 10:35 21,7 C 35 % 1010,0 hPa 0,0 l/m 0,0 km/h (0 Bft) SW 225 5,6 C 0,0 C 0,0 km/h (0 Bft)
03.04.2014 10:40 22,1 C 35 % 1010,0 hPa 0,0 l/m 0,0 km/h (0 Bft) SW 225 5,9 C 0,0 C 0,0 km/h (0 Bft)
03.04.2014 10:45 22,5 C 33 % 1010,0 hPa 0,0 l/m 0,0 km/h (0 Bft) SW 225 5,4 C 0,0 C 0,0 km/h (0 Bft)
03.04.2014 10:50 21,7 C 31 % 1010,2 hPa 0,0 l/m 0,0 km/h (0 Bft) SW 225 3,8 C 0,0 C 0,0 km/h (0 Bft)
03.04.2014 10:55 22,6 C 32 % 1010,2 hPa 0,0 l/m 0,0 km/h (0 Bft) SW 225 5,1 C 0,0 C 0,0 km/h (0 Bft)
03.04.2014 11:00 23,0 C 29 % 1010,2 hPa 0,0 l/m 0,0 km/h (0 Bft) SW 225 4,0 C 0,0 C 0,0 km/h (0 Bft)
03.04.2014 11:05 23,0 C 30 % 1010,2 hPa 0,0 l/m 0,0 km/h (0 Bft) SW 225 4,5 C 0,0 C 0,0 km/h (0 Bft)
03.04.2014 11:10 23,4 C 29 % 1010,2 hPa 0,0 l/m 0,0 km/h (0 Bft) SW 225 4,3 C 0,0 C 0,0 km/h (0 Bft)
03.04.2014 11:15 23,3 C 29 % 1010,2 hPa 0,0 l/m 0,0 km/h (0 Bft) SW 225 4,3 C 0,0 C 0,0 km/h (0 Bft)
03.04.2014 11:20 23,1 C 24 % 1010,2 hPa 0,0 l/m 0,0 km/h (0 Bft) SW 225 1,4 C 0,0 C 0,0 km/h (0 Bft)
03.04.2014 11:25 23,1 C 28 % 1010,2 hPa 0,0 l/m 0,0 km/h (0 Bft) SW 225 3,6 C 0,0 C 0,0 km/h (0 Bft)
03.04.2014 11:30 23,1 C 26 % 1010,2 hPa 0,0 l/m 0,0 km/h (0 Bft) SW 225 2,5 C 0,0 C 0,0 km/h (0 Bft)
03.04.2014 11:35 22,5 C 27 % 1010,2 hPa 0,0 l/m 0,0 km/h (0 Bft) SW 225 2,6 C 0,0 C 0,0 km/h (0 Bft)
03.04.2014 11:40 22,3 C 26 % 1010,2 hPa 0,0 l/m 0,0 km/h (0 Bft) SW 225 1,9 C 0,0 C 0,0 km/h (0 Bft)
03.04.2014 11:45 22,1 C 26 % 1010,2 hPa 0,0 l/m 0,0 km/h (0 Bft) SW 225 1,7 C 0,0 C 0,0 km/h (0 Bft)
03.04.2014 11:50 22,0 C 25 % 1010,2 hPa 0,0 l/m 0,0 km/h (0 Bft) SW 225 1,1 C 0,0 C 0,0 km/h (0 Bft)
03.04.2014 11:55 22,0 C 26 % 1010,2 hPa 0,0 l/m 0,0 km/h (0 Bft) SW 225 1,6 C 0,0 C 0,0 km/h (0 Bft)
03.04.2014 12:00 21,5 C 25 % 1010,2 hPa 0,0 l/m 0,0 km/h (0 Bft) SW 225 0,6 C 0,0 C 0,0 km/h (0 Bft)
03.04.2014 12:05 21,2 C 26 % 1010,2 hPa 0,0 l/m 0,0 km/h (0 Bft) SW 225 0,9 C 0,0 C 0,0 km/h (0 Bft)
03.04.2014 12:10 21,1 C 26 % 1010,0 hPa 0,0 l/m 0,0 km/h (0 Bft) SW 225 0,9 C 0,0 C 0,0 km/h (0 Bft)
03.04.2014 12:15 20,6 C 24 % 1010,0 hPa 0,0 l/m 0,0 km/h (0 Bft) SW 225 -0,7 C 0,0 C 0,0 km/h (0 Bft)
03.04.2014 12:20 20,5 C 24 % 1010,0 hPa 0,0 l/m 0,0 km/h (0 Bft) SW 225 -0,8 C 0,0 C 0,0 km/h (0 Bft)
03.04.2014 12:25 20,7 C 25 % 1010,0 hPa 0,0 l/m 0,0 km/h (0 Bft) SW 225 -0,0 C 0,0 C 0,0 km/h (0 Bft)
03.04.2014 12:30 21,4 C 26 % 1009,9 hPa 0,0 l/m 0,0 km/h (0 Bft) SW 225 1,1 C 0,0 C 0,0 km/h (0 Bft)
03.04.2014 12:35 21,9 C 22 % 1009,9 hPa 0,0 l/m 0,0 km/h (0 Bft) SW 225 -0,8 C 0,0 C 0,0 km/h (0 Bft)
03.04.2014 12:40 21,6 C 22 % 1009,9 hPa 0,0 l/m 0,0 km/h (0 Bft) SW 225 -1,0 C 0,0 C 0,0 km/h (0 Bft)
03.04.2014 12:45 21,4 C 22 % 1009,9 hPa 0,0 l/m 0,0 km/h (0 Bft) SW 225 -1,2 C 0,0 C 0,0 km/h (0 Bft)
03.04.2014 12:50 21,4 C 23 % 1010,0 hPa 0,0 l/m 0,0 km/h (0 Bft) SW 225 -0,6 C 0,0 C 0,0 km/h (0 Bft)
03.04.2014 12:55 21,1 C 24 % 1010,0 hPa 0,0 l/m 0,0 km/h (0 Bft) SW 225 -0,3 C 0,0 C 0,0 km/h (0 Bft)
03.04.2014 13:00 20,9 C 23 % 1010,0 hPa 0,0 l/m 0,0 km/h (0 Bft) SW 225 -1,0 C 0,0 C 0,0 km/h (0 Bft)
03.04.2014 13:05 21,0 C 22 % 1010,0 hPa 0,0 l/m 0,0 km/h (0 Bft) SW 225 -1,5 C 0,0 C 0,0 km/h (0 Bft)
03.04.2014 13:10 20,9 C 23 % 1009,7 hPa 0,0 l/m 0,0 km/h (0 Bft) SW 225 -1,0 C 0,0 C 0,0 km/h (0 Bft)
03.04.2014 13:15 20,8 C 22 % 1009,7 hPa 0,0 l/m 0,0 km/h (0 Bft) SW 225 -1,7 C 0,0 C 0,0 km/h (0 Bft)
03.04.2014 13:20 20,9 C 22 % 1009,7 hPa 0,0 l/m 0,0 km/h (0 Bft) SW 225 -1,6 C 0,0 C 0,0 km/h (0 Bft)
03.04.2014 13:25 20,8 C 23 % 1009,7 hPa 0,0 l/m 0,0 km/h (0 Bft) SW 225 -1,1 C 0,0 C 0,0 km/h (0 Bft)
03.04.2014 13:30 20,6 C 25 % 1009,7 hPa 0,0 l/m 0,0 km/h (0 Bft) SW 225 -0,1 C 0,0 C 0,0 km/h (0 Bft)
03.04.2014 13:35 20,3 C 23 % 1009,7 hPa 0,0 l/m 0,0 km/h (0 Bft) SW 225 -1,5 C 0,0 C 0,0 km/h (0 Bft)
03.04.2014 13:40 20,2 C 24 % 1009,7 hPa 0,0 l/m 0,0 km/h (0 Bft) SW 225 -1,0 C 0,0 C 0,0 km/h (0 Bft)
03.04.2014 13:45 20,2 C 23 % 1009,7 hPa 0,0 l/m 0,0 km/h (0 Bft) SW 225 -1,6 C 0,0 C 0,0 km/h (0 Bft)
03.04.2014 13:50 20,1 C 23 % 1009,6 hPa 0,0 l/m 0,0 km/h (0 Bft) SW 225 -1,7 C 0,0 C 0,0 km/h (0 Bft)
03.04.2014 13:55 20,1 C 23 % 1009,6 hPa 0,0 l/m 0,0 km/h (0 Bft) SW 225 -1,7 C 0,0 C 0,0 km/h (0 Bft)
03.04.2014 14:00 20,2 C 24 % 1009,6 hPa 0,0 l/m 0,0 km/h (0 Bft) SW 225 -1,0 C 0,0 C 0,0 km/h (0 Bft)
03.04.2014 14:05 20,1 C 24 % 1009,6 hPa 0,0 l/m 0,0 km/h (0 Bft) SW 225 -1,1 C 0,0 C 0,0 km/h (0 Bft)
03.04.2014 14:10 20,1 C 25 % 1009,5 hPa 0,0 l/m 0,0 km/h (0 Bft) SW 225 -0,5 C 0,0 C 0,0 km/h (0 Bft)
03.04.2014 14:15 20,1 C 27 % 1009,5 hPa 0,0 l/m 0,0 km/h (0 Bft) SW 225 0,5 C 0,0 C 0,0 km/h (0 Bft)
03.04.2014 14:20 19,8 C 26 % 1009,5 hPa 0,0 l/m 0,0 km/h (0 Bft) SW 225 -0,3 C 0,0 C 0,0 km/h (0 Bft)
03.04.2014 14:25 19,7 C 27 % 1009,5 hPa 0,0 l/m 0,0 km/h (0 Bft) SW 225 0,2 C 0,0 C 0,0 km/h (0 Bft)
03.04.2014 14:30 19,5 C 28 % 1009,2 hPa 0,0 l/m 0,0 km/h (0 Bft) SW 225 0,5 C 0,0 C 0,0 km/h (0 Bft)
03.04.2014 14:35 19,5 C 29 % 1009,2 hPa 0,0 l/m 0,0 km/h (0 Bft) SW 225 1,0 C 0,0 C 0,0 km/h (0 Bft)
03.04.2014 14:40 19,4 C 31 % 1009,2 hPa 0,0 l/m 0,0 km/h (0 Bft) SW 225 1,8 C 0,0 C 0,0 km/h (0 Bft)
03.04.2014 14:45 19,3 C 31 % 1009,2 hPa 0,0 l/m 0,0 km/h (0 Bft) SW 225 1,8 C 0,0 C 0,0 km/h (0 Bft)
03.04.2014 14:50 19,3 C 32 % 1009,2 hPa 0,0 l/m 0,0 km/h (0 Bft) SW 225 2,2 C 0,0 C 0,0 km/h (0 Bft)
03.04.2014 14:55 19,2 C 33 % 1009,2 hPa 0,0 l/m 0,0 km/h (0 Bft) SW 225 2,5 C 0,0 C 0,0 km/h (0 Bft)
03.04.2014 15:00 19,3 C 34 % 1009,2 hPa 0,0 l/m 0,0 km/h (0 Bft) SW 225 3,0 C 0,0 C 0,0 km/h (0 Bft)
03.04.2014 15:03 19,4 C 35 % 1009,2 hPa 0,0 l/m 0,0 km/h (0 Bft) SW 225 3,5 C 0,0 C 0,0 km/h (0 Bft)
03.04.2014 15:05 19,4 C 35 % 1009,2 hPa 0,0 l/m 0,0 km/h (0 Bft) SW 225 3,5 C 0,0 C 0,0 km/h (0 Bft)
03.04.2014 15:10 19,5 C 35 % 1009,1 hPa 0,0 l/m 0,0 km/h (0 Bft) SW 225 3,6 C 0,0 C 0,0 km/h (0 Bft)
03.04.2014 15:15 19,5 C 35 % 1009,1 hPa 0,0 l/m 0,0 km/h (0 Bft) SW 225 3,6 C 0,0 C 0,0 km/h (0 Bft)
03.04.2014 15:20 19,7 C 34 % 1009,1 hPa 0,0 l/m 0,0 km/h (0 Bft) SW 225 3,4 C 0,0 C 0,0 km/h (0 Bft)
03.04.2014 15:25 19,9 C 34 % 1009,1 hPa 0,0 l/m 0,0 km/h (0 Bft) SW 225 3,6 C 0,0 C 0,0 km/h (0 Bft)
03.04.2014 15:30 19,7 C 33 % 1009,1 hPa 0,0 l/m 0,0 km/h (0 Bft) SW 225 3,0 C 0,0 C 0,0 km/h (0 Bft)
03.04.2014 15:35 19,6 C 34 % 1009,1 hPa 0,0 l/m 0,0 km/h (0 Bft) SW 225 3,3 C 0,0 C 0,0 km/h (0 Bft)
03.04.2014 15:40 19,4 C 34 % 1009,1 hPa 0,0 l/m 0,0 km/h (0 Bft) SW 225 3,1 C 0,0 C 0,0 km/h (0 Bft)
03.04.2014 15:45 19,5 C 34 % 1009,1 hPa 0,0 l/m 0,0 km/h (0 Bft) SW 225 3,2 C 0,0 C 0,0 km/h (0 Bft)
03.04.2014 15:50 19,5 C 34 % 1009,0 hPa 0,0 l/m 0,0 km/h (0 Bft) SW 225 3,2 C 0,0 C 0,0 km/h (0 Bft)
03.04.2014 15:55 19,1 C 35 % 1009,0 hPa 0,0 l/m 0,0 km/h (0 Bft) SW 225 3,3 C 0,0 C 0,0 km/h (0 Bft)
03.04.2014 16:00 19,3 C 32 % 1009,0 hPa 0,0 l/m 0,0 km/h (0 Bft) SW 225 2,2 C 0,0 C 0,0 km/h (0 Bft)
03.04.2014 16:05 19,2 C 33 % 1009,0 hPa 0,0 l/m 0,0 km/h (0 Bft) SW 225 2,5 C 0,0 C 0,0 km/h (0 Bft)
03.04.2014 16:10 18,8 C 33 % 1008,9 hPa 0,0 l/m 0,0 km/h (0 Bft) SW 225 2,2 C 0,0 C 0,0 km/h (0 Bft)
03.04.2014 16:15 18,7 C 33 % 1008,9 hPa 0,0 l/m 0,0 km/h (0 Bft) SW 225 2,1 C 0,0 C 0,0 km/h (0 Bft)
03.04.2014 16:20 18,7 C 36 % 1008,9 hPa 0,0 l/m 0,0 km/h (0 Bft) SW 225 3,3 C 0,0 C 0,0 km/h (0 Bft)
03.04.2014 16:25 18,5 C 33 % 1008,9 hPa 0,0 l/m 0,0 km/h (0 Bft) SW 225 1,9 C 0,0 C 0,0 km/h (0 Bft)
03.04.2014 16:30 18,5 C 34 % 1008,8 hPa 0,0 l/m 0,0 km/h (0 Bft) SW 225 2,3 C 0,0 C 0,0 km/h (0 Bft)
03.04.2014 16:35 18,4 C 35 % 1008,8 hPa 0,0 l/m 0,0 km/h (0 Bft) SW 225 2,7 C 0,0 C 0,0 km/h (0 Bft)
03.04.2014 16:40 18,2 C 36 % 1008,8 hPa 0,0 l/m 0,0 km/h (0 Bft) SW 225 2,9 C 0,0 C 0,0 km/h (0 Bft)
03.04.2014 16:45 18,0 C 35 % 1008,8 hPa 0,0 l/m 0,0 km/h (0 Bft) SW 225 2,3 C 0,0 C 0,0 km/h (0 Bft)
03.04.2014 16:50 17,8 C 36 % 1008,7 hPa 0,0 l/m 0,0 km/h (0 Bft) SW 225 2,5 C 0,0 C 0,0 km/h (0 Bft)
03.04.2014 16:55 17,6 C 36 % 1008,7 hPa 0,0 l/m 0,0 km/h (0 Bft) SW 225 2,4 C 0,0 C 0,0 km/h (0 Bft)
03.04.2014 17:00 17,5 C 36 % 1008,7 hPa 0,0 l/m 0,0 km/h (0 Bft) SW 225 2,3 C 0,0 C 0,0 km/h (0 Bft)
03.04.2014 17:05 17,4 C 36 % 1008,7 hPa 0,0 l/m 0,0 km/h (0 Bft) SW 225 2,2 C 0,0 C 0,0 km/h (0 Bft)
03.04.2014 17:10 17,3 C 35 % 1008,2 hPa 0,0 l/m 0,0 km/h (0 Bft) SW 225 1,7 C 0,0 C 0,0 km/h (0 Bft)
03.04.2014 17:15 17,1 C 36 % 1008,2 hPa 0,0 l/m 0,0 km/h (0 Bft) SW 225 1,9 C 0,0 C 0,0 km/h (0 Bft)
03.04.2014 17:20 17,1 C 37 % 1008,2 hPa 0,0 l/m 0,0 km/h (0 Bft) SW 225 2,3 C 0,0 C 0,0 km/h (0 Bft)
03.04.2014 17:25 17,1 C 37 % 1008,2 hPa 0,0 l/m 0,0 km/h (0 Bft) SW 225 2,3 C 0,0 C 0,0 km/h (0 Bft)
03.04.2014 17:30 16,9 C 38 % 1007,9 hPa 0,0 l/m 0,0 km/h (0 Bft) SW 225 2,5 C 0,0 C 0,0 km/h (0 Bft)
03.04.2014 17:35 16,9 C 38 % 1007,9 hPa 0,0 l/m 0,0 km/h (0 Bft) SW 225 2,5 C 0,0 C 0,0 km/h (0 Bft)
03.04.2014 17:40 17,0 C 37 % 1007,9 hPa 0,0 l/m 0,0 km/h (0 Bft) SW 225 2,2 C 0,0 C 0,0 km/h (0 Bft)
03.04.2014 17:45 16,8 C 40 % 1007,9 hPa 0,0 l/m 0,0 km/h (0 Bft) SW 225 3,1 C 0,0 C 0,0 km/h (0 Bft)
03.04.2014 17:50 16,7 C 39 % 1007,8 hPa 0,0 l/m 0,0 km/h (0 Bft) SW 225 2,7 C 0,0 C 0,0 km/h (0 Bft)
03.04.2014 17:55 16,6 C 38 % 1007,8 hPa 0,0 l/m 0,0 km/h (0 Bft) SW 225 2,2 C 0,0 C 0,0 km/h (0 Bft)
03.04.2014 18:00 16,5 C 37 % 1007,8 hPa 0,0 l/m 0,0 km/h (0 Bft) SW 225 1,8 C 0,0 C 0,0 km/h (0 Bft)
03.04.2014 18:05 16,3 C 36 % 1007,8 hPa 0,0 l/m 0,0 km/h (0 Bft) SW 225 1,2 C 0,0 C 0,0 km/h (0 Bft)
03.04.2014 18:10 16,1 C 36 % 1007,8 hPa 0,0 l/m 0,0 km/h (0 Bft) SW 225 1,0 C 0,0 C 0,0 km/h (0 Bft)
03.04.2014 18:15 15,8 C 36 % 1007,8 hPa 0,0 l/m 0,0 km/h (0 Bft) SW 225 0,8 C 0,0 C 0,0 km/h (0 Bft)
03.04.2014 18:20 15,6 C 36 % 1007,8 hPa 0,0 l/m 0,0 km/h (0 Bft) SW 225 0,6 C 0,0 C 0,0 km/h (0 Bft)
03.04.2014 18:25 15,0 C 37 % 1007,8 hPa 0,0 l/m 0,0 km/h (0 Bft) SW 225 0,4 C 0,0 C 0,0 km/h (0 Bft)
03.04.2014 18:30 14,8 C 38 % 1007,8 hPa 0,0 l/m 0,0 km/h (0 Bft) SW 225 0,6 C 0,0 C 0,0 km/h (0 Bft)
03.04.2014 18:35 14,8 C 37 % 1007,8 hPa 0,0 l/m 0,0 km/h (0 Bft) SW 225 0,3 C 0,0 C 0,0 km/h (0 Bft)
03.04.2014 18:40 14,5 C 38 % 1007,8 hPa 0,0 l/m 0,0 km/h (0 Bft) SW 225 0,4 C 0,0 C 0,0 km/h (0 Bft)
03.04.2014 18:45 14,4 C 38 % 1007,8 hPa 0,0 l/m 0,0 km/h (0 Bft) SW 225 0,3 C 0,0 C 0,0 km/h (0 Bft)
03.04.2014 18:50 14,1 C 38 % 1007,8 hPa 0,0 l/m 0,0 km/h (0 Bft) SW 225 0,0 C 0,0 C 0,0 km/h (0 Bft)
03.04.2014 18:55 13,9 C 39 % 1007,8 hPa 0,0 l/m 0,0 km/h (0 Bft) SW 225 0,2 C 0,0 C 0,0 km/h (0 Bft)
03.04.2014 19:00 13,6 C 39 % 1007,8 hPa 0,0 l/m 0,0 km/h (0 Bft) SW 225 -0,1 C 0,0 C 0,0 km/h (0 Bft)
03.04.2014 19:05 13,0 C 40 % 1007,8 hPa 0,0 l/m 0,0 km/h (0 Bft) SW 225 -0,3 C 0,0 C 0,0 km/h (0 Bft)
03.04.2014 19:10 13,2 C 41 % 1007,8 hPa 0,0 l/m 0,0 km/h (0 Bft) SW 225 0,2 C 0,0 C 0,0 km/h (0 Bft)
03.04.2014 19:15 13,2 C 43 % 1007,8 hPa 0,0 l/m 0,0 km/h (0 Bft) SW 225 0,9 C 0,0 C 0,0 km/h (0 Bft)
03.04.2014 19:20 13,2 C 44 % 1007,8 hPa 0,0 l/m 0,0 km/h (0 Bft) SW 225 1,2 C 0,0 C 0,0 km/h (0 Bft)
03.04.2014 19:25 13,1 C 45 % 1007,8 hPa 0,0 l/m 0,0 km/h (0 Bft) SW 225 1,4 C 0,0 C 0,0 km/h (0 Bft)
03.04.2014 19:30 13,2 C 44 % 1007,9 hPa 0,0 l/m 0,0 km/h (0 Bft) SW 225 1,2 C 0,0 C 0,0 km/h (0 Bft)
03.04.2014 19:35 12,9 C 46 % 1007,9 hPa 0,0 l/m 0,0 km/h (0 Bft) SW 225 1,6 C 0,0 C 0,0 km/h (0 Bft)
03.04.2014 19:40 12,7 C 45 % 1007,9 hPa 0,0 l/m 0,0 km/h (0 Bft) SW 225 1,1 C 0,0 C 0,0 km/h (0 Bft)
03.04.2014 19:45 11,9 C 48 % 1007,9 hPa 0,0 l/m 0,0 km/h (0 Bft) SW 225 1,2 C 0,0 C 0,0 km/h (0 Bft)
03.04.2014 19:50 11,3 C 50 % 1007,8 hPa 0,0 l/m 0,0 km/h (0 Bft) SW 225 1,3 C 0,0 C 0,0 km/h (0 Bft)
03.04.2014 19:55 11,1 C 51 % 1007,8 hPa 0,0 l/m 0,0 km/h (0 Bft) SW 225 1,4 C 0,0 C 0,0 km/h (0 Bft)
03.04.2014 20:00 11,2 C 52 % 1007,8 hPa 0,0 l/m 0,0 km/h (0 Bft) SW 225 1,7 C 0,0 C 0,0 km/h (0 Bft)
03.04.2014 20:05 11,2 C 52 % 1007,8 hPa 0,0 l/m 0,0 km/h (0 Bft) SW 225 1,7 C 0,0 C 0,0 km/h (0 Bft)
03.04.2014 20:10 10,7 C 52 % 1007,7 hPa 0,0 l/m 0,0 km/h (0 Bft) SW 225 1,3 C 0,0 C 0,0 km/h (0 Bft)
03.04.2014 20:15 11,1 C 49 % 1007,7 hPa 0,0 l/m 0,0 km/h (0 Bft) SW 225 0,8 C 0,0 C 0,0 km/h (0 Bft)
03.04.2014 20:20 11,3 C 48 % 1007,7 hPa 0,0 l/m 0,0 km/h (0 Bft) SW 225 0,7 C 0,0 C 0,0 km/h (0 Bft)
03.04.2014 20:25 11,1 C 47 % 1007,7 hPa 0,0 l/m 0,0 km/h (0 Bft) SW 225 0,2 C 0,0 C 0,0 km/h (0 Bft)
03.04.2014 20:30 10,4 C 49 % 1007,8 hPa 0,0 l/m 0,0 km/h (0 Bft) SW 225 0,2 C 0,0 C 0,0 km/h (0 Bft)
03.04.2014 20:35 10,0 C 49 % 1007,8 hPa 0,0 l/m 0,0 km/h (0 Bft) SW 225 -0,2 C 0,0 C 0,0 km/h (0 Bft)
03.04.2014 20:40 9,9 C 50 % 1007,8 hPa 0,0 l/m 0,0 km/h (0 Bft) SW 225 -0,0 C 0,0 C 0,0 km/h (0 Bft)
03.04.2014 20:45 9,8 C 50 % 1007,8 hPa 0,0 l/m 0,0 km/h (0 Bft) SW 225 -0,1 C 0,0 C 0,0 km/h (0 Bft)
03.04.2014 20:50 9,8 C 50 % 1008,0 hPa 0,0 l/m 0,0 km/h (0 Bft) SW 225 -0,1 C 0,0 C 0,0 km/h (0 Bft)
03.04.2014 20:55 9,9 C 50 % 1008,0 hPa 0,0 l/m 0,0 km/h (0 Bft) SW 225 -0,0 C 0,0 C 0,0 km/h (0 Bft)
03.04.2014 21:00 10,1 C 49 % 1008,0 hPa 0,0 l/m 0,0 km/h (0 Bft) SW 225 -0,1 C 0,0 C 0,0 km/h (0 Bft)
03.04.2014 21:03 9,6 C 50 % 1008,0 hPa 0,0 l/m 0,0 km/h (0 Bft) SW 225 -0,3 C 0,0 C 0,0 km/h (0 Bft)
03.04.2014 21:05 9,6 C 50 % 1008,0 hPa 0,0 l/m 0,0 km/h (0 Bft) SW 225 -0,3 C 0,0 C 0,0 km/h (0 Bft)
03.04.2014 21:10 9,1 C 51 % 1008,2 hPa 0,0 l/m 0,0 km/h (0 Bft) SW 225 -0,5 C 0,0 C 0,0 km/h (0 Bft)
03.04.2014 21:15 9,2 C 51 % 1008,2 hPa 0,0 l/m 0,0 km/h (0 Bft) SW 225 -0,4 C 0,0 C 0,0 km/h (0 Bft)
03.04.2014 21:20 9,2 C 51 % 1008,2 hPa 0,0 l/m 0,0 km/h (0 Bft) SW 225 -0,4 C 0,0 C 0,0 km/h (0 Bft)
03.04.2014 21:25 9,0 C 52 % 1008,2 hPa 0,0 l/m 0,0 km/h (0 Bft) SW 225 -0,3 C 0,0 C 0,0 km/h (0 Bft)
03.04.2014 21:30 8,7 C 53 % 1008,2 hPa 0,0 l/m 0,0 km/h (0 Bft) SW 225 -0,3 C 0,0 C 0,0 km/h (0 Bft)
03.04.2014 21:35 8,4 C 55 % 1008,2 hPa 0,0 l/m 0,0 km/h (0 Bft) SW 225 -0,1 C 0,0 C 0,0 km/h (0 Bft)
03.04.2014 21:40 8,3 C 58 % 1008,2 hPa 0,0 l/m 0,0 km/h (0 Bft) SW 225 0,5 C 0,0 C 0,0 km/h (0 Bft)
03.04.2014 21:45 8,1 C 57 % 1008,2 hPa 0,0 l/m 0,0 km/h (0 Bft) SW 225 0,1 C 0,0 C 0,0 km/h (0 Bft)
03.04.2014 21:50 8,1 C 58 % 1008,1 hPa 0,0 l/m 0,0 km/h (0 Bft) SW 225 0,3 C 0,0 C 0,0 km/h (0 Bft)
03.04.2014 21:55 8,1 C 58 % 1008,1 hPa 0,0 l/m 0,0 km/h (0 Bft) SW 225 0,3 C 0,0 C 0,0 km/h (0 Bft)
03.04.2014 22:00 7,9 C 58 % 1008,1 hPa 0,0 l/m 0,0 km/h (0 Bft) SW 225 0,2 C 0,0 C 0,0 km/h (0 Bft)
03.04.2014 22:05 7,9 C 58 % 1008,1 hPa 0,0 l/m 0,0 km/h (0 Bft) SW 225 0,2 C 0,0 C 0,0 km/h (0 Bft)
03.04.2014 22:10 7,7 C 58 % 1008,1 hPa 0,0 l/m 0,0 km/h (0 Bft) SW 225 -0,0 C 0,0 C 0,0 km/h (0 Bft)
03.04.2014 22:15 7,8 C 58 % 1008,1 hPa 0,0 l/m 0,0 km/h (0 Bft) SW 225 0,1 C 0,0 C 0,0 km/h (0 Bft)
03.04.2014 22:20 7,7 C 59 % 1008,1 hPa 0,0 l/m 0,0 km/h (0 Bft) SW 225 0,2 C 0,0 C 0,0 km/h (0 Bft)
03.04.2014 22:25 7,9 C 59 % 1008,1 hPa 0,0 l/m 0,0 km/h (0 Bft) SW 225 0,4 C 0,0 C 0,0 km/h (0 Bft)
03.04.2014 22:30 8,2 C 59 % 1008,0 hPa 0,0 l/m 0,0 km/h (0 Bft) SW 225 0,7 C 0,0 C 0,0 km/h (0 Bft)
03.04.2014 22:35 8,0 C 58 % 1008,0 hPa 0,0 l/m 0,0 km/h (0 Bft) SW 225 0,3 C 0,0 C 0,0 km/h (0 Bft)
03.04.2014 22:40 7,9 C 58 % 1008,0 hPa 0,0 l/m 0,0 km/h (0 Bft) SW 225 0,2 C 0,0 C 0,0 km/h (0 Bft)
03.04.2014 22:45 7,8 C 58 % 1008,0 hPa 0,0 l/m 0,0 km/h (0 Bft) SW 225 0,1 C 0,0 C 0,0 km/h (0 Bft)
03.04.2014 22:50 7,6 C 58 % 1007,9 hPa 0,0 l/m 0,0 km/h (0 Bft) SW 225 -0,1 C 0,0 C 0,0 km/h (0 Bft)
03.04.2014 22:55 7,2 C 60 % 1007,9 hPa 0,0 l/m 0,0 km/h (0 Bft) SW 225 -0,0 C 0,0 C 0,0 km/h (0 Bft)
03.04.2014 23:00 7,3 C 59 % 1007,9 hPa 0,0 l/m 0,0 km/h (0 Bft) SW 225 -0,2 C 0,0 C 0,0 km/h (0 Bft)
03.04.2014 23:05 7,4 C 60 % 1007,9 hPa 0,0 l/m 0,0 km/h (0 Bft) SW 225 0,2 C 0,0 C 0,0 km/h (0 Bft)
03.04.2014 23:10 7,7 C 59 % 1007,8 hPa 0,0 l/m 0,0 km/h (0 Bft) SW 225 0,2 C 0,0 C 0,0 km/h (0 Bft)
03.04.2014 23:15 8,1 C 58 % 1007,8 hPa 0,0 l/m 0,0 km/h (0 Bft) SW 225 0,3 C 0,0 C 0,0 km/h (0 Bft)
03.04.2014 23:20 8,4 C 58 % 1007,8 hPa 0,0 l/m 0,0 km/h (0 Bft) SW 225 0,6 C 0,0 C 0,0 km/h (0 Bft)
03.04.2014 23:25 8,4 C 58 % 1007,8 hPa 0,0 l/m 0,0 km/h (0 Bft) SW 225 0,6 C 0,0 C 0,0 km/h (0 Bft)
03.04.2014 23:30 8,1 C 57 % 1007,9 hPa 0,0 l/m 0,0 km/h (0 Bft) SW 225 0,1 C 0,0 C 0,0 km/h (0 Bft)
03.04.2014 23:35 7,6 C 58 % 1007,9 hPa 0,0 l/m 0,0 km/h (0 Bft) SW 225 -0,1 C 0,0 C 0,0 km/h (0 Bft)
03.04.2014 23:40 7,5 C 59 % 1007,9 hPa 0,0 l/m 0,0 km/h (0 Bft) SW 225 0,0 C 0,0 C 0,0 km/h (0 Bft)
03.04.2014 23:45 7,1 C 59 % 1007,9 hPa 0,0 l/m 0,0 km/h (0 Bft) SW 225 -0,4 C 0,0 C 0,0 km/h (0 Bft)
03.04.2014 23:50 6,9 C 60 % 1007,9 hPa 0,0 l/m 0,0 km/h (0 Bft) SW 225 -0,3 C 0,0 C 0,0 km/h (0 Bft)
03.04.2014 23:55 7,0 C 60 % 1007,9 hPa 0,0 l/m 0,0 km/h (0 Bft) SW 225 -0,2 C 0,0 C 0,0 km/h (0 Bft)
_ Min-Zeit 06:30 13:20 20:25 - 23:55 - - 13:15 23:55 23:55
Minimum _ 2,6 C 22 % 1007,7 hPa - 0,0 km/h (0 Bft) - - -1,7 C 0,0 C 0,0 km/h (0 Bft)
_ Max-Zeit 11:10 05:20 12:05 23:55 23:55 - - 08:30 23:55 23:55
Maximum _ 23,4 C 83 % 1010,2 hPa 0,0 l/m 0,0 km/h
SW (0 Bft)
- - 7,2 C 0,0 C 0,0 km/h
SW (0 Bft)
Durchschnitt _ 11,7 C 54 % 1008,9 hPa #0,0 l/m 0,0 km/h (0 Bft) - - - 1,4 C 0,0 C 0,0 km/h (0 Bft)